F1ZFG-13 Weather Reports


time (UTC)temp
F
wind
direction
speed
knots
gust
knots
rain 1hr
in
rain 24hr
in
rain mn
in
humidity
%
barometer
mb
20260507195033 55 352 3.5 0.0 0.00 0.00 0.00 74 1013.5
20260507185446 58 3 4.3 0.0 0.00 0.00 0.00 69 1013.1
20260507180039 58 3 4.3 0.0 0.00 0.00 0.00 69 1013.1
20260507170908 60 9 6.1 0.0 0.00 0.00 0.00 60 1012.7
20260507161340 61 13 6.1 0.0 0.00 0.00 0.00 57 1012.6
20260507151621 62 1 6.1 0.0 0.00 0.00 0.00 55 1012.7
20260507142519 62 2 4.3 0.0 0.00 0.00 0.00 56 1013.1
20260507132958 62 355 4.3 0.0 0.00 0.00 0.00 58 1013.8
20260507123953 61 352 2.6 0.0 0.00 0.00 0.00 57 1013.8
20260507123818 61 352 2.6 0.0 0.00 0.00 0.00 57 1013.8
20260507113933 59 6 2.6 0.0 0.00 0.00 0.00 62 1014.5
20260507105109 57 359 3.5 0.0 0.00 0.00 0.00 68 1015.0
20260507095923 55 351 3.5 0.0 0.00 0.00 0.00 75 1015.1
20260507090133 55 351 3.5 0.0 0.00 0.00 0.00 75 1015.1
20260507081218 53 352 2.6 0.0 0.00 0.00 0.00 82 1015.2
20260507071553 49 338 2.6 0.0 0.00 0.00 0.00 91 1015.3
20260507061938 46 327 2.6 0.0 0.00 0.00 0.00 95 1014.9
20260507052439 44 303 1.7 0.0 0.00 0.00 0.00 98 1014.3
20260507042536 43 295 1.7 0.0 0.00 0.00 0.00 99 1014.0
20260507033353 43 297 1.7 0.0 0.00 0.00 0.00 99 1013.7
20260507024454 44 303 1.7 0.0 0.00 0.00 0.00 99 1013.6
20260507015050 44 285 0.9 0.0 0.00 0.00 0.00 99 1013.8
20260507005143 45 331 1.7 0.0 0.00 0.00 0.00 96 1013.1
20260506235254 46 302 1.7 0.0 0.00 0.00 0.00 95 1013.1
20260506230014 46 302 1.7 0.0 0.00 0.00 0.00 95 1013.1
20260506220714 48 292 1.7 0.0 0.00 0.00 0.00 93 1012.6
20260506211230 49 296 1.7 0.0 0.00 0.00 0.00 89 1012.4
20260506201408 51 244 1.7 0.0 0.00 0.00 0.00 85 1012.0